Regional Weather Roundup
Issued by NWS Sioux Falls, SD

Home | Current Version | Previous Version | Text Only | Print | Product List | Glossary Off
Versions: 1 2 3 4 5 6 7 8 9 10 11 12 13 14 15 16 17 18 19 20 21 22 23 24 25 26 27 28 29 30 31 32 33 34 35 36 37 38 39 40 41 42 43 44 45 46 47 48 49 50

000
ASUS43 KFSD 282002
RWRFSD

WEATHER ROUNDUP FOR SE SOUTH DAKOTA/SW MINNESOTA/NW IOWA
NATIONAL WEATHER SERVICE SIOUX FALLS SD
300 PM CDT THU AUG 28 2014

NOTE: "FAIR" INDICATES FEW OR NO CLOUDS BELOW 12,000 FEET WITH NO
SIGNIFICANT WEATHER AND OR OBSTRUCTIONS TO VISIBILITY.


SDZ038>040-050-052>070-282100-
SOUTHEAST SOUTH DAKOTA

CITY           SKY/WX    TMP DP  RH WIND       PRES   REMARKS
CHAMBERLAIN    CLOUDY    75  68  78 W5        29.85F
HURON          CLOUDY    72  67  84 SE5       29.86F
MADISON        LGT RAIN  68  68 100 SE6       29.90F
MITCHELL       CLOUDY    74  69  85 E7        29.86F
SIOUX FALLS    CLOUDY    72  68  87 SE7       29.89S
WINNER         LGT RAIN  74  68  81 NW12      29.87F
YANKTON        PTSUNNY   75  72  88 E5        29.85F
$$

MNZ071-072-080-081-089-090-097-098-282100-
SOUTHWEST MINNESOTA

CITY           SKY/WX    TMP DP  RH WIND       PRES   REMARKS
FAIRMONT       CLOUDY    66  63  88 SE9       29.94F
JACKSON        CLOUDY    70  66  88 SE10      29.95F
LUVERNE        CLOUDY    72  68  88 SE10      29.91S
MARSHALL       CLOUDY    66  63  88 SE10      29.92F
MONTEVIDEO     LGT RAIN  66  66 100 SE12      29.95F
PIPESTONE      RAIN      70  66  88 SE8       29.92S
REDWOOD FALLS  CLOUDY    66  65  96 E8        29.95F
TRACY          CLOUDY    68  67  95 CALM      29.94F
WINDOM         CLOUDY    72  66  83 SE9       29.94F
WORTHINGTON    CLOUDY    70  66  88 SE13      29.94S
$$

IAZ001>003-012>014-020>022-031-032-NEZ013-014-SDZ071-282100-
NORTHWEST IOWA

CITY           SKY/WX    TMP DP  RH WIND       PRES   REMARKS
DENISON        PTSUNNY   77  72  83 S7        29.89F
ESTHERVILLE    LGT RAIN  68  67  96 SE12      29.94F
LE MARS        CLOUDY    79  72  78 S9        29.88F
ORANGE CITY    CLOUDY    73  70  88 CALM      29.90F
SHELDON        CLOUDY    70  68  94 SE8G18    29.90F
SIOUX CITY     PTSUNNY   82  72  71 S10       29.86F
SPENCER        CLOUDY    70  67  90 E10       29.92F
STORM LAKE     PTSUNNY   73  73 100 S8        29.92S
$$

ABBREVIATIONS USED IN REMARKS
   TC - TEMPERATURE IN CELSIUS
  WCI - WIND CHILL INDEX
   HX - HEAT INDEX
  VSB - VISIBILITY



USA.gov is the U.S. government's official web portal to all federal, state and local government web resources and services.